Total_Precipitation_Accumulation
0.01 0.01 0.03 0.04 0.06 0.09 0.14 0.17 0.26 0.31 0.23 0.25 0.42 0.61 0.72 0.83 1.07 1.20 1.22 1.17 1.22 1.51 1.97 2.14 2.45 2.94 3.74 4.47 5.16 5.30 5.60 5.09 4.46 3.95 3.58 3.47 3.27 2.96 2.84 2.72 2.64 2.49 2.24 2.14
0.02 0.05 0.05 0.04 0.05 0.08 0.12 0.18 0.27 0.27 0.19 0.23 0.44 0.74 0.89 0.96 0.95 1.01 1.06 1.13 1.22 1.58 2.04 2.38 2.91 3.30 3.33 3.87 4.57 4.63 4.35 4.15 3.71 3.34 3.19 3.03 2.98 2.64 2.47 2.34 2.41 2.20 2.05 2.08
0.05 0.07 0.05 0.04 0.06 0.12 0.15 0.18 0.22 0.21 0.20 0.29 0.50 0.93 1.21 1.11 0.83 0.75 0.81 0.91 1.04 1.38 1.89 2.31 2.73 3.17 3.14 3.52 3.61 3.24 3.10 3.20 3.16 3.00 2.90 2.76 2.77 2.57 2.31 2.16 2.18 2.02 1.81 1.84
0.04 0.04 0.04 0.05 0.07 0.08 0.11 0.10 0.10 0.11 0.19 0.36 0.52 1.13 1.52 1.28 0.96 0.78 0.81 0.98 1.04 1.15 1.35 1.64 1.97 2.39 2.59 2.68 2.60 2.57 2.56 2.63 2.84 2.84 2.62 2.45 2.17 2.09 2.03 1.92 1.98 1.96 1.71 1.65
0.04 0.04 0.04 0.05 0.06 0.06 0.07 0.06 0.07 0.12 0.18 0.37 0.59 0.94 1.39 1.36 1.28 1.09 0.94 0.99 0.94 0.97 1.05 1.18 1.28 1.49 1.77 2.02 2.09 2.09 2.39 2.51 2.54 2.52 2.48 2.52 2.25 2.07 2.02 2.12 2.33 2.25 1.93 1.61
0.05 0.06 0.05 0.04 0.05 0.06 0.06 0.07 0.15 0.30 0.43 0.79 0.79 0.84 1.24 1.19 1.10 1.09 0.93 0.79 0.74 0.78 0.82 1.00 1.03 1.07 1.20 1.36 1.49 1.63 1.93 2.16 2.23 2.18 2.19 2.25 2.29 2.27 2.08 2.01 2.07 2.01 1.86 1.66
0.14 0.12 0.10 0.05 0.06 0.07 0.07 0.11 0.38 0.78 1.10 1.28 0.85 0.79 1.01 0.90 0.90 1.01 0.79 0.55 0.50 0.60 0.64 0.82 0.81 0.85 0.96 1.00 1.11 1.33 1.56 1.72 1.83 1.90 1.97 2.04 2.24 2.21 1.98 1.77 1.81 1.79 1.63 1.55
0.16 0.19 0.11 0.05 0.06 0.07 0.07 0.09 0.24 0.43 0.60 0.82 0.85 1.18 1.11 0.75 0.72 0.64 0.48 0.37 0.34 0.50 0.57 0.63 0.58 0.60 0.74 0.81 0.90 1.07 1.24 1.34 1.46 1.66 1.87 1.86 2.01 1.89 1.75 1.87 1.77 1.66 1.45 1.48
0.07 0.07 0.06 0.05 0.06 0.07 0.06 0.06 0.08 0.13 0.21 0.51 0.92 1.29 1.09 0.71 0.65 0.50 0.37 0.30 0.34 0.40 0.54 0.52 0.46 0.48 0.51 0.56 0.65 0.85 1.15 1.24 1.27 1.36 1.56 1.66 1.67 1.69 1.78 1.95 1.90 1.73 1.64 1.52
0.04 0.03 0.04 0.05 0.06 0.07 0.07 0.07 0.08 0.11 0.20 0.40 0.79 1.19 1.30 1.06 0.77 0.52 0.43 0.40 0.48 0.49 0.62 0.66 0.51 0.48 0.49 0.48 0.58 0.68 0.85 1.10 1.28 1.27 1.26 1.29 1.55 1.61 1.73 1.82 1.76 1.74 1.69 1.68
0.04 0.02 0.04 0.05 0.07 0.08 0.09 0.09 0.10 0.12 0.18 0.28 0.62 0.90 0.83 0.84 0.67 0.52 0.52 0.61 0.49 0.49 0.56 0.64 0.47 0.44 0.44 0.48 0.54 0.65 0.79 1.07 1.27 1.18 1.21 1.32 1.49 1.59 1.64 1.79 1.78 1.73 1.71 1.76
0.05 0.03 0.04 0.08 0.12 0.11 0.10 0.11 0.12 0.16 0.18 0.19 0.32 0.56 0.48 0.57 0.59 0.68 0.71 0.66 0.59 0.58 0.59 0.63 0.55 0.60 0.63 0.67 0.70 0.78 0.88 1.04 1.15 1.16 1.24 1.32 1.42 1.50 1.56 1.62 1.70 1.76 1.74 1.81
0.06 0.05 0.07 0.22 0.32 0.23 0.15 0.11 0.12 0.14 0.14 0.18 0.36 0.59 0.51 0.58 0.62 0.68 0.69 0.66 0.72 0.75 0.70 0.67 0.70 0.82 0.79 0.83 0.95 0.99 1.04 1.06 1.15 1.29 1.30 1.26 1.33 1.32 1.38 1.48 1.55 1.68 1.74 1.80
0.07 0.07 0.08 0.22 0.34 0.37 0.27 0.18 0.16 0.14 0.14 0.18 0.28 0.50 0.50 0.63 0.85 0.79 0.82 0.79 0.71 0.74 0.73 0.66 0.72 0.81 0.86 0.90 0.98 1.03 1.03 1.05 1.15 1.19 1.23 1.27 1.27 1.32 1.42 1.51 1.57 1.66 1.67 1.72
0.09 0.07 0.06 0.10 0.18 0.21 0.23 0.21 0.19 0.14 0.12 0.18 0.27 0.43 0.58 0.69 0.93 0.80 0.78 0.86 0.92 0.78 0.72 0.64 0.70 0.82 0.98 0.98 0.91 0.94 1.01 1.06 1.20 1.21 1.18 1.24 1.35 1.38 1.42 1.42 1.46 1.53 1.57 1.56
0.15 0.11 0.10 0.11 0.14 0.15 0.17 0.19 0.16 0.12 0.10 0.11 0.21 0.44 0.63 0.73 0.80 0.78 0.66 0.70 0.91 0.81 0.71 0.70 0.81 0.97 0.97 0.88 0.85 0.88 0.86 0.95 1.11 1.20 1.29 1.37 1.39 1.32 1.39 1.42 1.43 1.47 1.54 1.61
0.28 0.22 0.21 0.21 0.17 0.19 0.26 0.21 0.19 0.16 0.14 0.15 0.28 0.45 0.62 0.77 0.72 0.78 0.72 0.67 0.67 0.64 0.64 0.72 0.80 0.87 0.90 0.90 0.86 0.82 0.77 0.89 1.17 1.25 1.26 1.44 1.54 1.46 1.54 1.58 1.58 1.56 1.56 1.68
0.38 0.39 0.32 0.28 0.31 0.38 0.30 0.26 0.25 0.27 0.28 0.26 0.30 0.42 0.63 0.84 0.78 0.75 0.76 0.74 0.67 0.55 0.60 0.70 0.73 0.74 0.78 0.81 0.81 0.81 0.85 0.90 1.13 1.30 1.38 1.62 1.77 1.68 1.70 1.72 1.74 1.77 1.82 1.85
0.39 0.47 0.47 0.43 0.44 0.47 0.41 0.38 0.40 0.48 0.59 0.50 0.51 0.64 0.70 0.69 0.72 0.79 0.74 0.68 0.63 0.61 0.65 0.69 0.75 0.80 0.87 0.94 0.96 0.96 1.06 1.17 1.32 1.45 1.56 1.78 2.02 2.16 2.12 1.98 2.06 2.14 2.12 2.10
0.35 0.46 0.56 0.58 0.65 0.74 0.69 0.55 0.51 0.66 1.06 0.87 0.70 0.73 0.74 0.75 0.95 0.96 0.70 0.62 0.59 0.63 0.72 0.86 1.00 0.99 1.03 1.14 1.10 1.12 1.26 1.47 1.62 1.63 1.64 1.79 2.02 2.14 2.12 2.14 2.35 2.45 2.37 2.27
0.55 0.57 0.60 0.66 0.76 0.77 0.69 0.61 0.64 1.16 1.56 1.11 0.94 0.95 0.99 1.00 0.96 0.83 0.75 0.77 0.69 0.67 0.76 0.82 0.85 0.98 1.11 1.22 1.29 1.41 1.45 1.53 1.58 1.61 1.64 1.77 2.02 2.31 2.28 2.31 2.39 2.45 2.45 2.44
0.76 0.77 0.75 0.79 1.03 1.16 0.75 0.67 1.03 1.41 1.29 1.33 1.30 1.27 1.21 1.06 0.88 0.77 0.76 0.82 0.75 0.73 0.79 0.80 0.79 0.90 1.08 1.28 1.49 1.56 1.53 1.55 1.65 1.66 1.66 1.75 2.02 2.15 2.21 2.34 2.38 2.47 2.56 2.53
0.89 0.98 0.98 1.07 1.29 1.18 0.93 1.01 1.07 1.16 1.27 1.32 1.26 1.26 1.23 1.17 1.05 0.94 0.89 0.86 0.83 0.89 0.88 0.89 0.90 0.98 1.10 1.27 1.49 1.67 1.68 1.66 1.61 1.58 1.55 1.64 1.81 1.91 2.06 2.15 2.09 2.15 2.28 2.27
1.05 0.93 1.15 1.48 1.48 1.30 1.15 1.08 1.06 1.06 1.12 1.09 1.04 1.00 0.99 0.99 0.97 0.94 0.95 0.98 1.01 1.06 1.03 1.03 1.07 1.11 1.18 1.27 1.45 1.62 1.62 1.63 1.61 1.53 1.48 1.59 1.80 1.90 1.98 2.04 2.02 2.07 2.12 2.19
1.33 1.26 1.48 1.87 1.84 1.64 1.50 1.30 1.23 1.10 1.11 1.10 1.01 0.97 0.92 0.84 0.84 0.84 0.83 0.86 0.93 1.02 1.05 1.06 1.11 1.17 1.20 1.25 1.43 1.56 1.59 1.64 1.70 1.65 1.59 1.68 1.79 1.87 2.02 2.08 2.10 2.10 2.09 2.07
1.28 1.49 1.79 2.04 1.85 1.74 1.70 1.37 1.31 1.35 1.24 1.12 1.11 1.07 0.98 0.84 0.80 0.82 0.80 0.82 0.86 0.96 1.10 1.16 1.24 1.24 1.21 1.22 1.35 1.47 1.65 1.81 1.84 1.78 1.73 1.70 1.66 1.74 1.80 1.84 1.79 1.74 1.69 1.67